Location: Kellogg
(38.0159°N, 90.0546°W)
Time: 15:47:14
(UTC+00:00)

Altair - Pass Details

Date: 17 September 2024
Orbit: 1501 x 1682 km, 47.2° (Epoch: 15 October)

Event Time Altitude Azimuth Distance (km) Brightness Sun altitude
Exits shadow 06:55:24 32° 79° (E) 2,585 8.7 -47.6°
Drops below altitude 10° 07:00:24 10° 64° (ENE) 3,940 10.0 -47.2°
Sets 07:03:41 0° 60° (ENE) 4,937 10.7 -46.9°
